Probability
0 1 3 4 5 7 10 10 9 7 7 7 9 8 5 4 2 1 0 0 0 0 1 2 1 1 0 0 1 1 0 0 0 0 0 0 0 0 0 0 0 0 0
0 2 4 6 8 9 10 10 9 8 7 7 8 7 6 5 3 1 0 0 0 0 1 1 1 1 0 0 1 2 1 0 1 1 0 0 0 0 0 0 0 0 0
1 2 5 8 11 12 12 11 11 10 9 8 7 7 7 7 5 2 0 0 0 0 0 1 1 1 0 0 1 2 2 2 2 2 1 0 0 0 0 0 0 0 0
3 3 5 8 12 14 14 13 12 11 10 10 8 7 8 8 6 3 1 1 1 1 0 1 1 1 0 0 1 2 3 3 4 3 1 0 0 0 0 0 0 0 0
5 4 5 8 11 14 15 14 13 12 12 12 11 9 8 9 8 5 3 3 3 2 1 1 1 1 1 1 1 2 3 5 4 2 1 0 0 0 0 0 0 0 0
8 7 7 9 12 14 15 15 13 12 12 13 14 12 9 8 8 8 6 5 4 3 2 1 1 1 1 1 2 3 4 5 4 1 0 0 0 0 0 0 0 0 0
12 11 10 10 13 15 14 14 13 11 10 12 14 13 11 9 8 9 8 7 5 4 3 2 2 2 1 1 4 5 4 3 2 1 0 0 0 0 0 0 0 0 0
12 13 12 10 11 14 13 12 12 12 10 11 12 13 12 11 9 9 10 10 7 5 4 4 4 3 1 1 3 5 3 2 2 1 0 0 0 0 0 0 0 0 0
10 11 11 9 10 12 12 11 12 13 11 11 11 11 11 11 10 11 12 12 10 8 7 6 6 5 2 1 2 3 2 1 1 1 1 0 0 0 0 0 0 0 0
7 8 9 10 10 10 10 10 11 12 11 10 10 10 9 10 10 10 10 11 10 10 9 8 7 6 4 2 1 1 1 0 1 2 1 0 0 0 0 0 0 0 0
4 5 8 9 9 9 8 8 9 10 10 10 9 9 9 10 10 9 8 7 8 10 10 8 6 6 4 2 1 0 0 1 2 2 1 0 0 0 0 0 1 1 0
3 4 6 8 8 7 5 5 6 7 8 9 9 9 9 10 9 7 5 3 5 7 8 6 5 4 3 1 0 0 0 1 2 2 1 0 1 1 0 1 2 2 1
3 3 5 8 8 6 4 4 4 5 6 6 7 8 9 9 7 4 2 1 2 4 5 4 3 3 2 1 0 0 0 0 1 2 2 1 2 1 1 1 3 3 3
2 2 4 7 9 7 5 4 4 4 4 4 5 7 8 8 5 2 0 0 2 3 3 3 3 3 1 0 0 0 0 0 1 2 2 2 2 2 2 2 3 4 4
1 1 3 6 9 8 6 6 5 4 3 3 4 6 7 6 3 1 0 0 1 2 3 3 3 2 1 0 0 0 0 0 1 2 2 1 2 3 3 3 4 4 4
0 0 2 6 8 9 7 6 6 5 4 4 5 5 5 3 1 0 0 0 0 1 3 3 3 2 1 0 0 0 0 0 1 2 2 1 1 2 3 3 4 4 4
0 1 3 5 7 8 8 7 6 6 5 5 6 5 2 1 0 0 0 0 0 1 2 3 3 2 1 0 0 0 0 0 0 1 2 2 1 1 2 3 3 4 4
0 1 3 4 6 8 8 7 6 6 5 5 5 4 2 1 0 0 0 0 0 0 1 3 3 3 1 0 0 0 0 0 0 1 2 2 1 0 1 1 2 3 4
0 1 2 3 5 8 8 6 5 4 4 3 3 3 3 2 1 0 0 0 0 0 1 2 3 3 2 1 0 0 0 0 0 0 1 2 2 1 0 0 1 3 3
0 0 1 3 4 6 7 5 4 3 3 2 2 2 3 3 1 0 0 0 0 0 1 2 3 3 2 1 0 0 0 0 0 0 0 1 2 1 0 0 1 2 3
0 0 1 2 4 6 6 5 4 3 2 3 3 2 3 3 2 1 0 0 0 0 1 2 3 3 2 1 0 0 0 0 0 0 0 1 2 1 0 0 0 1 2
0 0 1 2 4 5 6 6 4 3 3 3 4 3 3 3 2 1 0 0 0 0 1 2 3 3 2 1 0 0 0 0 0 0 0 1 2 2 1 0 0 0 1
0 0 0 1 3 4 5 6 4 3 3 3 4 4 4 3 2 1 0 0 0 0 1 2 3 3 2 1 0 0 0 0 0 0 1 2 3 2 1 0 0 0 0
0 0 0 1 2 3 4 6 5 4 3 3 4 5 5 4 3 1 0 0 0 0 1 2 3 2 1 0 0 0 0 0 0 0 1 2 2 1 0 0 0 0 0
0 0 0 0 1 3 4 5 5 3 3 3 4 5 6 4 3 2 1 0 0 0 0 1 1 1 1 0 0 0 0 0 0 0 0 1 1 0 0 0 0 0 0
0 0 0 0 1 2 4 5 5 2 2 3 4 5 6 5 4 2 1 0 0 0 0 0 0 1 0 0 0 0 0 0 0 0 0 0 0 0 0 0 0 0 0
Wind_Speed
1 2 1 4 4 6 7 7 7 7 8 8 9 9 10 10 10 10 10 10 10 10 10 10 10 10 11 11 11 11 11 11 12 11 11 11 11 12 12 12 11 8 13
2 1 3 4 5 6 7 7 7 7 7 8 9 9 10 10 10 9 9 10 10 10 10 10 10 10 10 10 10 11 11 11 11 11 11 10 11 11 11 11 10 7 11
3 2 3 5 6 6 7 8 7 7 7 7 8 9 9 9 9 9 9 9 9 9 10 10 10 9 10 10 10 10 11 11 11 11 10 5 6 10 10 10 10 10 10
3 3 3 5 7 7 7 8 8 7 7 7 8 8 8 8 8 8 8 8 9 9 9 9 9 9 9 9 9 9 10 10 11 10 6 4 4 9 10 10 10 9 10
3 3 3 6 7 7 7 7 8 7 7 7 7 7 7 7 7 7 7 8 8 8 8 8 8 8 8 8 9 9 9 9 10 7 4 4 3 8 10 9 9 9 9
3 3 3 6 7 7 7 7 7 7 7 7 6 6 6 7 6 7 7 7 7 7 7 8 8 8 8 8 8 9 9 9 7 4 4 3 3 7 9 9 8 9 8
3 3 3 6 6 6 7 6 7 6 6 6 6 6 6 6 6 7 7 7 6 6 7 7 7 7 7 7 8 8 8 8 5 3 3 3 3 7 8 8 8 8 8
4 3 3 5 6 6 6 6 6 6 6 6 6 6 6 6 6 6 6 6 6 6 6 6 6 6 6 6 7 7 8 7 5 3 3 2 4 6 6 7 7 7 7
3 3 3 3 3 5 5 5 5 5 6 6 6 5 6 6 6 5 5 5 5 6 6 6 6 7 7 6 7 7 7 7 4 2 2 1 3 5 5 6 7 7 6
3 3 2 2 3 3 3 4 5 5 5 5 5 5 6 6 5 5 5 4 5 5 6 7 7 7 7 7 7 7 8 6 3 2 1 1 4 5 6 6 6 6 7
2 2 2 2 2 3 2 3 4 5 5 5 5 5 5 3 3 3 4 5 5 5 6 7 7 7 7 7 7 8 6 3 2 2 1 3 4 5 5 5 6 6 6
2 0 1 2 2 2 2 2 2 2 2 3 3 3 3 3 3 3 4 5 5 5 5 6 7 6 6 3 5 6 3 3 2 2 2 3 3 3 4 4 4 4 4
3 2 1 1 2 2 1 1 1 1 2 2 3 3 2 2 2 3 2 3 3 4 3 4 4 3 3 2 2 2 2 2 2 2 2 4 3 3 3 3 3 3 3
2 2 2 2 2 2 2 1 1 1 1 1 2 2 2 2 2 2 2 2 2 2 2 2 2 3 3 3 2 2 2 2 1 1 2 4 4 3 2 3 2 2 2
3 3 2 2 3 2 2 1 1 1 1 1 1 1 2 1 2 2 1 1 1 2 2 2 2 2 2 2 2 2 2 2 2 2 2 4 4 3 2 2 2 2 2
4 3 2 2 3 3 2 2 1 1 1 1 1 1 1 1 1 1 1 1 1 1 2 2 2 1 1 1 2 2 1 1 2 2 2 3 5 5 4 3 3 3 3
4 3 3 3 3 3 2 2 1 1 1 1 1 1 1 1 1 1 1 1 0 1 2 2 2 1 1 2 2 1 1 1 1 1 2 1 2 5 5 4 4 4 4
3 3 3 2 3 3 2 2 1 1 1 1 1 1 1 1 1 1 1 0 0 1 1 1 1 2 1 1 1 1 1 1 1 1 1 1 1 2 4 5 5 5 5
4 4 3 2 3 3 2 2 1 1 1 1 1 1 1 1 1 1 1 0 1 1 1 1 1 2 1 1 1 1 1 1 1 1 1 1 1 1 2 4 5 5 5
3 3 3 3 2 2 2 1 1 1 1 1 1 1 1 1 1 1 1 1 1 1 1 1 1 1 1 1 1 1 1 1 1 1 1 1 1 1 2 2 3 4 6
2 2 3 2 2 2 2 2 1 1 1 0 1 1 1 1 1 1 1 1 1 1 2 2 1 1 1 1 1 1 2 1 1 1 1 0 1 1 2 2 2 2 3
3 3 3 3 3 3 2 2 2 2 1 1 1 1 1 1 1 1 2 1 1 1 1 1 2 1 1 1 1 1 1 2 2 1 0 0 1 1 2 2 2 2 2
3 4 3 3 3 2 2 1 1 1 0 0 1 1 1 1 1 2 2 2 2 2 2 2 2 3 2 1 1 2 1 2 2 2 1 0 0 0 1 1 2 2 2
5 4 3 3 3 2 2 3 3 2 2 2 2 2 1 1 1 2 2 2 2 2 2 3 3 2 3 2 1 0 1 1 1 2 2 1 1 1 2 2 2 2 2
4 3 3 3 3 3 3 3 3 3 2 1 1 2 2 1 1 2 2 2 2 2 2 2 2 3 3 3 2 1 1 0 1 2 3 3 2 2 1 2 1 1 1
2 2 3 3 3 3 3 3 4 4 3 2 2 2 2 1 1 2 2 2 2 2 2 3 3 3 3 3 2 2 2 2 2 2 3 3 3 2 2 1 1 1 1
Wind_Direction
255 264 173 120 105 98 101 98 93 93 94 94 96 95 94 92 90 88 84 82 79 78 80 81 85 86 87 85 82 81 82 81 80 77 78 81 86 87 83 78 74 71 77
179 187 137 117 106 97 99 101 94 93 97 98 98 97 96 94 92 91 88 85 83 80 79 79 82 85 86 86 84 82 82 80 78 75 72 74 79 87 85 82 80 79 78
126 135 131 115 102 94 97 105 101 97 99 101 100 99 99 98 95 93 90 87 85 82 79 76 78 82 83 83 83 83 83 81 79 72 63 55 68 83 85 82 83 82 78
119 114 121 111 104 95 90 95 98 97 95 97 100 99 98 98 97 95 92 88 84 83 80 77 76 80 82 81 80 83 84 81 77 69 55 49 59 80 81 82 82 82 79
100 97 117 109 106 101 94 89 93 93 88 86 91 97 99 99 96 96 94 90 86 83 82 80 78 81 83 82 81 82 83 79 73 64 52 49 53 78 79 78 78 77 78
98 91 111 110 106 102 97 91 91 96 93 87 84 86 97 101 99 95 92 91 89 87 86 84 81 83 82 81 83 83 82 79 69 60 54 48 51 75 80 78 74 75 76
101 85 97 102 104 101 98 96 92 94 101 95 90 84 85 95 98 93 90 90 92 92 91 89 86 84 85 83 83 84 82 77 73 64 57 52 66 77 79 77 75 75 75
102 81 75 93 94 99 100 96 91 86 89 96 91 85 83 84 91 92 92 93 93 93 91 90 90 88 86 86 84 82 78 72 73 66 55 53 73 79 80 77 75 75 72
84 80 67 65 77 85 91 93 89 86 84 84 86 85 83 82 85 90 88 91 93 92 88 88 89 87 79 77 81 76 70 63 63 57 46 43 71 79 82 80 77 75 73
69 68 70 66 70 73 78 85 81 79 78 76 78 78 75 73 75 80 83 83 88 93 92 90 87 84 79 73 70 68 61 55 49 42 28 39 66 80 84 80 74 72 66
69 53 67 65 66 74 73 75 74 74 71 68 70 73 69 64 61 62 71 73 84 91 92 90 86 79 73 70 67 63 54 40 39 31 19 49 69 75 79 76 72 68 65
173 159 90 95 87 85 82 76 71 66 66 65 64 62 63 60 52 54 61 68 75 79 80 78 76 72 63 54 59 58 48 41 37 21 19 47 66 68 67 69 69 68 66
189 183 178 140 117 107 101 89 80 69 61 62 66 61 65 66 54 49 51 50 50 60 62 59 61 58 60 59 54 51 51 46 26 6 12 33 49 60 56 55 60 64 64
186 192 192 174 148 134 123 112 103 91 78 67 62 60 72 72 61 54 53 53 59 60 64 59 59 58 60 59 62 58 52 45 21 1 4 26 26 36 44 40 30 38 47
190 200 197 179 163 152 139 137 110 121 121 107 80 68 75 88 81 71 65 62 74 79 80 75 69 63 61 55 55 57 46 38 26 12 0 11 12 10 15 12 2 358 2
196 198 196 180 167 151 149 149 150 146 133 112 102 100 97 100 105 101 85 73 86 102 107 101 88 77 59 58 51 46 36 29 23 16 8 2 7 4 358 352 349 353 348
196 192 190 181 159 157 159 159 146 143 129 129 142 129 120 112 118 124 125 106 126 116 112 108 92 78 66 55 46 38 39 30 21 3 356 357 353 359 357 353 350 345 341
183 184 192 179 164 167 165 159 152 140 133 143 155 147 142 130 128 126 131 154 140 115 115 124 120 96 60 42 21 3 10 7 4 349 353 357 359 356 352 357 351 344 340
184 181 185 177 173 174 164 152 146 141 144 160 156 150 159 148 143 140 164 176 134 123 127 148 121 127 113 49 9 1 353 336 320 341 346 356 358 4 352 353 358 356 349
182 176 179 177 172 166 154 135 116 110 145 151 168 173 165 165 151 144 148 145 136 138 144 142 138 109 128 133 38 10 337 315 307 303 296 347 4 11 10 7 3 2 0
171 173 180 174 183 167 166 172 176 199 217 205 196 189 181 170 163 152 147 150 162 170 182 167 146 132 105 103 79 5 340 334 323 310 322 26 19 13 24 18 6 4 349
184 187 187 184 185 191 192 188 182 186 204 211 217 221 208 186 178 172 164 171 180 163 158 168 146 148 143 116 119 103 340 333 326 323 341 80 14 15 4 357 354 360 347
194 196 194 196 189 193 186 156 129 111 99 207 230 244 250 226 196 185 182 178 183 174 187 193 179 166 175 174 135 146 162 246 307 314 301 306 291 334 320 326 336 341 339
208 203 191 191 191 187 170 165 171 184 206 225 222 222 240 223 203 196 185 180 183 188 195 201 184 181 170 182 194 145 176 170 199 308 314 312 310 291 291 312 320 322 325
209 198 194 187 189 182 177 180 181 193 209 213 213 211 224 224 212 206 191 186 193 199 202 205 194 186 185 183 180 176 160 168 194 213 278 305 317 293 279 279 279 286 302
200 188 185 188 193 186 188 195 197 197 197 195 216 218 227 223 221 221 202 198 206 208 204 203 198 196 196 194 193 186 180 182 196 209 248 274 289 296 303 282 264 256 265